Flag for U.S.A. Weather past 2 weeks in Detroit, Michigan, U.S.A.

Now
42 °F

Clear.


Feels Like: 39 °F
Forecast: 43 / 65 °F
Wind: 5 mph from Southeast

Location: Detroit City Airport

Current Time: Apr 2, 2015 at 12:31:23 AM

Latest Report: Apr 1, 2015 at 11:53 PM


Visibility: 9 mi

Pressure: 30.01 "Hg

Humidity: 71%

Dew point: 33 °F

Location of DetroitLocation

Historic Weather in Detroit — Graph

°F

Detroit temperature yesterday

Maximum temperature yesterday: 55 °F (at 6:53 PM)
Minimum temperature yesterday: 37 °F (at 12:53 AM)
Average temperature yesterday: 45 °F

Past Weeks' High & Low Weather Summary

 TemperatureHumidityPressure
High58 °F (Mar 30, 4:53 PM)89% (Mar 25, 10:53 AM)30.40 "Hg (Mar 25, 10:53 AM)
Low18 °F (Mar 27, 11:53 PM)23% (Mar 30, 4:53 PM)29.73 "Hg (Mar 30, 12:53 AM)
Average36 °F56%30.12 "Hg
* Reported Mar 17 10:53 PM — Apr 1 10:53 PM, Detroit, Weather by CustomWeather, © 2015

Note: Actual official high and low records may vary slightly from our data, if they occured in-between our weather recording intervals... More about our weather records

Advertising

Detroit weather history for previous 24 hours

 ConditionsComfort  
Time TempWeatherWind HumidityBarometerVisibility
10:53 PM
Wed, Apr 1
44 °FClear.7 mph68%30.03 "Hg9 mi
9:53 PM45 °FClear.5 mph68%30.06 "Hg8 mi
8:53 PM48 °FSunny.9 mph63%30.04 "Hg8 mi
7:53 PM52 °FSunny.12 mph61%30.02 "Hg8 mi
6:53 PM55 °FSunny.12 mph55%30.04 "Hg9 mi
5:53 PM54 °FSunny.10 mph57%30.06 "Hg9 mi
4:53 PM54 °FSunny.9 mph53%30.07 "Hg9 mi
3:53 PM53 °FSunny.10 mph52%30.10 "Hg8 mi
2:53 PM53 °FSunny.8 mph52%30.11 "Hg8 mi
1:53 PM51 °FSunny.8 mph54%30.14 "Hg8 mi
12:53 PM50 °FSunny.8 mph57%30.14 "Hg8 mi
11:53 AM49 °FSunny.3 mph55%30.14 "Hg8 mi
10:53 AM46 °FSunny.3 mph63%30.14 "Hg6 mi
9:53 AM42 °FSunny.No wind73%30.11 "Hg5 mi
8:53 AM38 °FPartly sunny.No wind79%30.10 "Hg4 mi
7:53 AM37 °FPassing clouds.3 mph79%30.08 "Hg4 mi
6:53 AM38 °FMostly cloudy.3 mph79%30.05 "Hg6 mi
5:53 AM37 °FHaze.6 mph79%30.03 "Hg6 mi
4:53 AM39 °FPassing clouds.8 mph76%30.01 "Hg7 mi
3:53 AM39 °FMostly cloudy.8 mph79%30.01 "Hg7 mi
2:53 AM38 °FOvercast.7 mph83%30.01 "Hg6 mi
1:53 AM39 °FPassing clouds.3 mph79%30.00 "Hg6 mi
12:53 AM37 °FClear.6 mph82%29.98 "Hg5 mi
Weather by CustomWeather, © 2015

See weather overviewHow to use our weather pages